Location: Nagano
(36.1121°N, 137.9502°E)
Time: 01:58:34
(UTC+09:00)

Tianhe-1 - Visible Passes

Search period start: 14 June 2021 00:00
Search period end: 24 June 2021 00:00
Orbit: 375 x 387 km, 41.5° (Epoch: 12 June)

Date Brightness Start Highest point End Pass type
(mag) Time Alt. Az. Time Alt. Az. Time Alt. Az.
16 Jun 3.7 03:26:25 10° SSE 03:27:18 11° SE 03:28:12 10° SE visible
17 Jun 2.0 03:59:51 10° SW 04:02:47 37° SSE 04:05:45 10° E visible
18 Jun 2.9 03:01:16 18° SSE 03:02:00 20° SE 03:04:24 10° E visible
19 Jun 1.1 03:35:13 16° SW 03:37:36 68° SSE 03:40:45 10° ENE visible
20 Jun 2.0 02:36:59 34° SE 02:36:59 34° SE 02:39:39 10° E visible
21 Jun 1.1 03:10:49 25° W 03:12:26 71° NNW 03:15:36 10° ENE visible
22 Jun 2.3 02:12:31 37° E 02:12:31 37° E 02:14:37 10° ENE visible
22 Jun 2.5 03:45:29 10° WNW 03:48:23 34° N 03:51:19 10° ENE visible
23 Jun 1.8 02:46:17 32° WNW 02:47:19 46° NNW 02:50:22 10° ENE visible
